Home > Time Zones > World Clock > Weather > U.S.A. > Bend > Past weeks

Flag for U.S.A. Weather past 2 weeks in Bend, Oregon, U.S.A.

Now
75 °F

Sunny.


Feels Like: 77 °F
Forecast: 53 / 74 °F
Wind: 13 mph from Northwest

Location: Roberts Field Airport

Current Time: Aug 20, 2014 at 1:50:55 PM

Latest Report: Aug 20, 2014 at 12:56 PM


Visibility: 10 mi

Pressure: 29.85 "Hg

Humidity: 36%

Dew point: 46 °F

Location of BendLocation

Historic Weather in Bend — Graph

°F

Bend temperature yesterday

Maximum temperature yesterday: 87 °F (at 2:56 PM)
Minimum temperature yesterday: 57 °F (at 4:56 AM)
Average temperature yesterday: 71 °F

Past Weeks' High & Low Weather Summary

 TemperatureHumidityPressure
High95 °F (Aug 10, 3:56 PM)97% (Aug 15, 1:56 AM)30.09 "Hg (Aug 15, 1:56 AM)
Low45 °F (Aug 9, 2:56 AM)10% (Aug 11, 4:56 PM)29.73 "Hg (Aug 19, 3:56 PM)
Average68 °F49%29.97 "Hg
* Reported Aug 5 12:56 PM — Aug 20 12:56 PM, Bend, Weather by CustomWeather, © 2014

Note: Actual official high and low records may vary slightly from our data, if they occured in-between our weather recording intervals... More about our weather records

Advertising

Bend weather history for previous 24 hours

 ConditionsComfort  
Time TempWeatherWind HumidityBarometerVisibility
12:56 PM
Aug 20
75 °FSunny.13 mph36%29.85 "Hg10 mi
11:56 AM75 °FSunny.13 mph37%29.86 "Hg10 mi
10:56 AM69 °FPassing clouds.14 mph45%29.87 "Hg10 mi
9:56 AM67 °FScattered clouds.10 mph49%29.88 "Hg10 mi
8:56 AM67 °FSunny.12 mph49%29.87 "Hg10 mi
7:56 AM63 °FSunny.5 mph58%29.87 "Hg10 mi
6:56 AM53 °FClear.5 mph83%29.86 "Hg8 mi
5:56 AM51 °FClear.5 mph86%29.85 "Hg9 mi
4:56 AM53 °FClear.3 mph80%29.83 "Hg10 mi
3:56 AM59 °FClear.No wind69%29.82 "Hg10 mi
2:56 AM61 °FClear.6 mph67%29.81 "Hg10 mi
1:56 AM62 °FClear.5 mph62%29.81 "Hg10 mi
12:56 AM65 °FClear.9 mph61%29.80 "Hg10 mi
11:56 PM
Aug 19
66 °FClear.9 mph56%29.80 "Hg10 mi
10:56 PM67 °FClear.7 mph55%29.80 "Hg10 mi
9:56 PM68 °FClear.7 mph55%29.82 "Hg9 mi
8:56 PM71 °FSunny.14 mph47%29.81 "Hg10 mi
7:56 PM74 °FSunny.15 mph43%29.78 "Hg10 mi
6:56 PM78 °FSunny.21 mph36%29.76 "Hg10 mi
5:56 PM82 °FSunny.21 mph32%29.74 "Hg10 mi
4:56 PM85 °FPassing clouds.20 mph28%29.73 "Hg10 mi
3:56 PM86 °FSunny.13 mph23%29.73 "Hg10 mi
2:56 PM87 °FSunny.16 mph23%29.74 "Hg10 mi
1:56 PM85 °FSunny.10 mph22%29.76 "Hg10 mi
Weather by CustomWeather, © 2014

See weather overviewHow to use our weather pages